TimeCEST,TemperatureF,Dew PointF,Humidity,Sea Level PressureIn,VisibilityMPH,Wind Direction,Wind SpeedMPH,Gust SpeedMPH,PrecipitationIn,Events,Conditions,WindDirDegrees,DateUTC
12:00 AM,51.8,44.6,76,30.04,-9999.0,NNE,4.6,-,N/A,,Clear,20,2012-10-03 22:00:00
12:30 AM,51.8,44.6,76,30.04,-9999.0,West,2.3,-,N/A,,Clear,270,2012-10-03 22:30:00
1:00 AM,50.0,42.8,76,30.04,-9999.0,Variable,1.2,-,N/A,,Clear,0,2012-10-03 23:00:00
1:30 AM,50.0,42.8,76,30.04,-9999.0,NE,3.5,-,N/A,,Clear,40,2012-10-03 23:30:00
2:00 AM,47,40,70,30.06,19,ENE,4.5,,,,Clear,70,2012-10-04 00:00:00
2:00 AM,50.0,44.6,82,30.04,-9999.0,Variable,2.3,-,N/A,,Clear,0,2012-10-04 00:00:00
2:30 AM,46.4,42.8,87,30.04,-9999.0,ENE,4.6,-,N/A,,Clear,60,2012-10-04 00:30:00
3:00 AM,48.2,42.8,82,30.04,-9999.0,WNW,3.5,-,N/A,,Clear,300,2012-10-04 01:00:00
3:30 AM,48.2,44.6,87,30.01,-9999.0,NW,2.3,-,N/A,,Clear,310,2012-10-04 01:30:00
4:00 AM,48.2,42.8,82,30.01,-9999.0,NE,5.8,-,N/A,,Clear,40,2012-10-04 02:00:00
4:30 AM,48.2,44.6,87,30.01,-9999.0,NE,4.6,-,N/A,,Clear,40,2012-10-04 02:30:00
5:00 AM,46.4,42.8,87,30.01,-9999.0,Variable,2.3,-,N/A,,Clear,0,2012-10-04 03:00:00
5:30 AM,48.2,42.8,82,30.01,-9999.0,NW,3.5,-,N/A,,Clear,310,2012-10-04 03:30:00
6:00 AM,46.4,42.8,87,30.01,-9999.0,NW,3.5,-,N/A,,Clear,310,2012-10-04 04:00:00
6:30 AM,46.4,42.8,87,30.01,-9999.0,Variable,2.3,-,N/A,,Clear,0,2012-10-04 04:30:00
7:00 AM,46.4,42.8,87,30.01,-9999.0,East,2.3,-,N/A,,Clear,90,2012-10-04 05:00:00
7:30 AM,44.6,41.0,87,30.01,-9999.0,Variable,1.2,-,N/A,,Clear,0,2012-10-04 05:30:00
8:00 AM,48,44,80,30.04,19,ESE,2.2,,,,Scattered Clouds,120,2012-10-04 06:00:00
8:00 AM,48.2,42.8,82,30.01,6.2,SE,1.2,-,N/A,,Partly Cloudy,140,2012-10-04 06:00:00
8:30 AM,50.0,44.6,82,30.01,-9999.0,Variable,1.2,-,N/A,,Clear,0,2012-10-04 06:30:00
9:00 AM,55.4,46.4,72,30.01,-9999.0,Variable,1.2,-,N/A,,Clear,0,2012-10-04 07:00:00
9:30 AM,55.4,46.4,72,30.01,-9999.0,SW,3.5,-,N/A,,Clear,220,2012-10-04 07:30:00
10:00 AM,59.0,48.2,67,30.01,-9999.0,SSW,3.5,-,N/A,,Clear,200,2012-10-04 08:00:00
10:35 AM,59.0,48.2,67,30.01,-9999.0,SSE,6.9,-,N/A,,Clear,150,2012-10-04 08:35:00
11:00 AM,60.8,48.2,63,30.01,-9999.0,SSE,6.9,-,N/A,,Clear,160,2012-10-04 09:00:00
11:30 AM,64.4,50.0,59,29.98,-9999.0,South,8.1,-,N/A,,Clear,180,2012-10-04 09:30:00
12:00 PM,64.4,50.0,59,29.98,6.2,South,9.2,-,N/A,,Partly Cloudy,180,2012-10-04 10:00:00
12:30 PM,64.4,50.0,59,29.98,-9999.0,South,9.2,-,N/A,,Clear,170,2012-10-04 10:30:00
1:00 PM,66.2,51.8,60,29.95,-9999.0,South,10.4,-,N/A,,Partly Cloudy,170,2012-10-04 11:00:00
1:30 PM,68.0,53.6,60,29.95,6.2,South,9.2,-,N/A,,Partly Cloudy,180,2012-10-04 11:30:00
2:00 PM,68,53,49,29.93,19,SSW,13.4,,,,Scattered Clouds,200,2012-10-04 12:00:00
2:00 PM,68.0,51.8,56,29.95,6.2,South,13.8,-,N/A,,Partly Cloudy,190,2012-10-04 12:00:00
2:30 PM,68.0,53.6,60,29.92,6.2,South,12.7,-,N/A,,Partly Cloudy,190,2012-10-04 12:30:00
3:00 PM,68.0,53.6,60,29.92,6.2,South,11.5,-,N/A,,Partly Cloudy,180,2012-10-04 13:00:00
3:33 PM,69.8,51.8,53,29.89,6.2,South,10.4,-,N/A,,Scattered Clouds,180,2012-10-04 13:33:00
4:00 PM,68.0,53.6,60,29.89,6.2,South,13.8,-,N/A,,Partly Cloudy,180,2012-10-04 14:00:00
4:33 PM,68.0,53.6,60,29.89,-9999.0,South,13.8,-,N/A,,Clear,190,2012-10-04 14:33:00
5:00 PM,68.0,53.6,60,29.89,-9999.0,South,10.4,-,N/A,,Clear,190,2012-10-04 15:00:00
5:30 PM,68.0,53.6,60,29.86,-9999.0,SSW,6.9,-,N/A,,Clear,200,2012-10-04 15:30:00
6:00 PM,66.2,53.6,64,29.86,6.2,SSW,5.8,-,N/A,,Partly Cloudy,210,2012-10-04 16:00:00
6:30 PM,66.2,53.6,64,29.83,-9999.0,SSE,6.9,-,N/A,,Clear,150,2012-10-04 16:30:00
7:00 PM,64.4,53.6,68,29.86,-9999.0,SSE,2.3,-,N/A,,Clear,160,2012-10-04 17:00:00
7:30 PM,64.4,53.6,68,29.83,-9999.0,SSE,3.5,-,N/A,,Clear,160,2012-10-04 17:30:00
8:00 PM,65,55,61,29.86,19,SSW,8.9,,,,Mostly Cloudy,200,2012-10-04 18:00:00
8:00 PM,64.4,53.6,68,29.86,-9999.0,SSW,9.2,-,N/A,,Clear,200,2012-10-04 18:00:00
8:17 PM,64.4,53.6,68,29.89,6.2,SW,8.1,-,N/A,Rain,Light Rain,220,2012-10-04 18:17:00
8:30 PM,64.4,53.6,68,29.89,4.3,WSW,11.5,-,N/A,Rain-Thunderstorm,Light Thunderstorms and Rain,250,2012-10-04 18:30:00
8:32 PM,62.6,55.4,77,29.89,1.9,West,15.0,32.2,N/A,Rain-Thunderstorm,Thunderstorms and Rain,260,2012-10-04 18:32:00
9:00 PM,60.8,51.8,72,29.92,6.2,West,21.9,-,N/A,Thunderstorm,Partly Cloudy,280,2012-10-04 19:00:00
9:05 PM,60.8,51.8,72,29.92,6.2,West,23.0,39.1,N/A,Rain,Light Rain,280,2012-10-04 19:05:00
9:30 PM,59.0,50.0,72,29.92,6.2,West,23.0,-,N/A,Rain,Light Rain,280,2012-10-04 19:30:00
10:00 PM,59.0,46.4,63,29.95,6.2,West,19.6,-,N/A,Rain,Light Rain,280,2012-10-04 20:00:00
10:30 PM,57.2,44.6,63,29.95,-9999.0,West,16.1,-,N/A,,Clear,280,2012-10-04 20:30:00
11:00 PM,57.2,44.6,63,29.98,-9999.0,West,15.0,-,N/A,,Clear,270,2012-10-04 21:00:00
11:30 PM,55.4,44.6,67,30.01,-9999.0,West,13.8,-,N/A,,Clear,280,2012-10-04 21:30:00